Simultaneous Nadir Overpasses (SNOs) Predictions

Prediction of SNOs between TERRA and METOP-C Satellite Orbit:

Table of predicted SNOs for the next 14.0 days since TLE Epoch: 11/9/2019
Index Date (TERRA) Time (TERRA) Lat,Lon (TERRA) SZA (TERRA ) Date (METOP-C) Time (METOP-C) Lat,Lon (METOP-C) SZA (METOP-C ) Distance(km) Time Diff (sec)
1 11/10/2019 18:55:53 81.33, -56.19 101.71 11/10/2019 18:54:50 81.32, -56.34 101.66 2.56 63
2 11/10/2019 19:45:20 -81.33, 111.43 78.29 11/10/2019 19:45:30 -81.33, 111.32 78.29 1.86 10
3 11/13/2019 14:30:08 81.32, 10.18 102.45 11/13/2019 14:29:11 81.32, 10.23 102.43 0.77 57
4 11/13/2019 15:19:35 -81.32, 177.83 77.54 11/13/2019 15:19:51 -81.33, 177.86 77.53 0.59 16
5 11/16/2019 10:04:23 81.32, 76.53 103.15 11/16/2019 10:03:33 81.32, 76.40 103.11 2.13 50
6 11/16/2019 10:53:50 -81.32,-115.80 76.84 11/16/2019 10:54:13 -81.32,-115.99 76.85 3.29 23
7 11/19/2019 05:38:36 81.33, 143.22 103.85 11/19/2019 05:37:52 81.33, 143.36 103.84 2.31 44
8 11/19/2019 06:28:03 -81.34, -49.08 76.14 11/19/2019 06:28:32 -81.33, -49.06 76.13 0.59 29
9 11/22/2019 01:12:51 81.32,-150.49 104.44 11/22/2019 01:12:14 81.32,-150.47 104.42 0.29 37




NCC Satellite Simultaneous Nadir Overpasses (SNOs) Prediction Service
